User: anonymous   Login
Location: Caltech
(34.1382°N, 118.1253°W)
Time: 17:50:40
(UTC-07:00)
Language:

Cosmos 1980 Rocket - Orbit

View from above orbital plane
View from above orbital plane
View from above satellite
View from above satellite

Ground track
Ground track

The orbit data is extracted from the following two-line orbital elements,

1 19650U 88102B   17203.47748170 -.00000289 +00000-0 -12292-3 0  9991
2 19650 070.9992 300.8914 0012687 135.8515 224.3623 14.15757205480984
Epoch (UTC): 22 July 2017 11:27:34
Eccentricity: 0.0012687
inclination: 70.9992°
perigee height: 830 km
apogee height: 849 km
right ascension of ascending node: 300.8914°
argument of perigee: 135.8515°
revolutions per day: 14.15757205
mean anomaly at epoch: 224.3623°
orbit number at epoch: 48098

The dashed part of the orbit path shows where the satellite is in the earth's shadow,  

DLR